Simultaneous Nadir Overpasses (SNOs) Predictions

Prediction of SNOs between AQUA and GOES-15 Satellite Orbit:

Table of predicted SNOs for the next 14.0 days since TLE Epoch: 4/23/2022
Index Date Time (AQUA) AQUA Lat,Lon GOES-15 Lat,Lon Distance(km) Time Diff (sec)
1 04/24/2022 22:12:13 -0.17,-128.61 -0.12,-128.28 36.95 80
2 04/26/2022 21:59:48 0.46,-125.59 -0.13,-128.25 303.07 80
3 04/27/2022 10:21:00 0.62,-130.73 0.12,-128.22 284.80 80
4 04/29/2022 10:08:34 0.03,-127.70 0.12,-128.19 55.08 80
5 05/01/2022 09:56:08 -0.59,-124.68 0.12,-128.15 394.62 80
6 05/01/2022 22:17:28 -0.48,-129.86 -0.11,-128.16 193.02 80
7 05/03/2022 22:05:03 0.18,-126.83 -0.11,-128.12 146.03 80
8 05/04/2022 10:26:14 0.90,-131.98 0.10,-128.09 441.47 80
9 05/05/2022 21:52:36 0.79,-123.80 -0.11,-128.07 484.78 80
10 05/06/2022 10:13:47 0.28,-128.94 0.10,-128.04 102.96 80
